Regional Weather Roundup
Issued by NWS Huntsville, AL

Home | Current Version | Previous Version | Text Only | Print | Product List | Glossary On
Versions: 1 2 3 4 5 6 7 8 9 10 11 12 13 14 15 16 17 18 19 20 21 22 23 24 25 26 27 28 29 30 31 32 33 34 35 36 37 38 39 40 41 42
000
ASUS44 KHUN 021410
RWRHUN

WEATHER ROUNDUP FOR THE TENNESSEE VALLEY
NATIONAL WEATHER SERVICE HUNTSVILLE AL
900 AM CDT THU OCT 02 2014

ALZ001>004-021500-
NORTHWEST ALABAMA

CITY           SKY/WX    TMP DP  RH WIND       PRES   REMARKS
COURTLAND HCN    N/A     72 N/A N/A S3          N/A
RUSSELLVILLE     N/A     72 N/A N/A MISG        N/A
SHOALS AIRPORT SUNNY     74  64  71 SE5       30.06R
SHOALS TVA RES   N/A     70 N/A N/A MISG        N/A
$$

ALZ005>007-016-021500-
NORTH CENTRAL ALABAMA

CITY           SKY/WX    TMP DP  RH WIND       PRES   REMARKS
CULLMAN AG STN   N/A     72 N/A N/A CALM        N/A
DECATUR AP     SUNNY     75  64  68 SE5       30.07R
HUNTSVILLE AP  MOSUNNY   76  63  64 S7        30.07R
HUN NWS/UAH      N/A     73  62  67 SE5         N/A
MERIDIANVILLE  SUNNY     73  59  60 SE5       30.08S
REDSTONE ARSN  MOSUNNY   75  63  64 SE7       30.08R
VINEMONT AP    FAIR      72  63  72 S7        30.10S
$$

ALZ008>010-021500-
NORTHEAST ALABAMA

CITY           SKY/WX    TMP DP  RH WIND       PRES   REMARKS
ALBERTVILLE    SUNNY     72  68  88 S3        30.10R
FORT PAYNE     SUNNY     68  59  73 CALM      30.11R
SCOTTSBORO AP  SUNNY     66  63  88 NE5       30.11S
SCOTTSBORO HCN   N/A     63 N/A N/A MISG        N/A
VALLEY HEAD      N/A     64 N/A N/A MISG        N/A
$$

TNZ076-096-097-021500-
SOUTHEASTERN MIDDLE TENNESSEE

CITY           SKY/WX    TMP DP  RH WIND       PRES   REMARKS
FAYETTEVILLE   SUNNY     72  61  68 SE8       30.09R
TULLAHOMA      SUNNY     72  61  68 S5        30.10R
WINCHESTER     SUNNY     73  63  68 SE7       30.09S
$$

...SURROUNDING SITES...

CITY           SKY/WX    TMP DP  RH WIND       PRES   REMARKS
ATLANTA        MOSUNNY   73  65  75 S5        30.13R
ANNISTON       SUNNY     71  64  78 E6        30.10R
BIRMINGHAM     MOSUNNY   74  65  73 SE5       30.10R
CHATTANOOGA    MOSUNNY   69  62  78 CALM      30.12R
CORINTH        FAIR      75  66  73 SE8       30.00S
DALTON         SUNNY     66  63  88 CALM      30.13R
GADSDEN        SUNNY     70  61  73 CALM      30.10R
GOLDEN TRNGL   PTSUNNY   72  66  83 S7        30.01R
HALEYVILLE     FAIR      73  66  78 CALM      30.08S
JACKSON TN     SUNNY     75  67  76 S9        29.98S
LEWISBURG      PTSUNNY   73  63  71 S8        30.06R
MEMPHIS        CLOUDY    75  70  84 S9        29.96S
MURFREESBORO   FAIR      74  61  63 S5        30.06R
NASHVILLE      PTSUNNY   73  62  68 S6        30.06R
OXFORD MS      CLOUDY    70  68  94 S5        30.00S FOG
ROME           SUNNY     69  62  78 CALM      30.11R
SAVANNAH       SUNNY     75  68  78 SE7       30.01S
TUPELO         CLOUDY    72  66  81 S8        30.00R
TUSCALOOSA     PTSUNNY   75  68  78 SE6       30.05S
$$

...GULF COAST WEATHER...

CITY           SKY/WX    TMP DP  RH WIND       PRES   REMARKS
GULFPORT       MOSUNNY   82  76  81 S10       30.00R
PASCAGOULA     MOSUNNY   77  75  93 CALM      30.02R
MOBILE         PTSUNNY   77  76  96 E6        30.04R
GULF SHORES    CLOUDY    82  75  80 SE7       30.03R
PENSACOLA      PTSUNNY   82  75  79 SE9       30.03R
DESTIN         MOSUNNY   81  75  82 SE9       30.05
PANAMA CITY    SUNNY     78  78  99 E3        30.06R
APPALACHICOLA  SUNNY     82  75  79 NE6       30.05R
$$



USA.gov is the U.S. government's official web portal to all federal, state and local government web resources and services.